Location: *
(35.2348°S, 91.3916°E)
Time: 04:33:08
(UTC+00:00)

ATLAS 5 CENTAUR R/B - Pass Details

Date: 23 October 2019
Orbit: 557 x 1102 km, 63.4° (Epoch: 11 November)

Event Time Altitude Azimuth Distance (km) Brightness Sun altitude
Exits shadow 20:17:57 40° 33° (NNE) 1,561 3.4 -30.0°
Maximum altitude 20:19:31 45° 65° (ENE) 1,432 3.4 -29.7°
Drops below altitude 10° 20:25:56 10° 135° (SE) 2,827 5.9 -28.8°
Sets 20:28:33 0° 141° (SE) 3,718 6.7 -28.4°
